Regional Weather Roundup
Issued by NWS Northern Indiana

Home | Current Version | Previous Version | Text Only | Print | Product List | Glossary On
Versions: 1 2 3 4 5 6 7 8 9 10 11 12 13 14 15 16 17 18 19 20 21 22 23 24 25 26 27 28 29 30 31 32 33 34 35 36 37 38 39 40 41 42 43 44 45 46 47 48 49 50
000
ASUS43 KIWX 302210
RWRIWX

KIWX WEATHER ROUNDUP
NATIONAL WEATHER SERVICE NORTHERN INDIANA
600 PM EDT SAT AUG 30 2014

NOTE: "FAIR" INDICATES FEW OR NO CLOUDS BELOW 12,000 FEET WITH NO
SIGNIFICANT WEATHER AND/OR OBSTRUCTIONS TO VISIBILITY.

* THESE STATIONS ARE NOT UNDER NWS QUALITY CONTROL. THEY ALSO MAY NOT
  REPORT WEATHER SUCH AS PRECIPITATION OR FOG.

INZ001>027-302300-
NORTHERN INDIANA

CITY           SKY/WX    TMP DP  RH WIND       PRES   REMARKS
GARY*          LGT RAIN  79  72  78 S12G23    29.85R
VALPARAISO     PTSUNNY   78  69  73 SW10      29.88R
MICHIGAN CITY* CLOUDY    79  68  69 S8        29.85F
LAPORTE*       PTSUNNY   77  69  74 SW13      29.88S
KNOX*          CLOUDY    79  69  71 W9        29.88R
SOUTH BEND     LGT RAIN  77  71  82 S7        29.89R
ELKHART*       PTSUNNY   73  68  83 SW9       29.89
GOSHEN         PTSUNNY   83  69  62 SW17G26   29.91R THUNDER
MONTICELLO*    PTSUNNY   81  72  74 SW13      29.89S
LOGANSPORT*    PTSUNNY   79  68  69 S15G22    29.91S
ROCHESTER*     PTSUNNY   82  72  69 SW12G18   29.91R
WARSAW*        PTSUNNY   81  70  69 S5        29.90R
ANGOLA*        MOSUNNY   82  75  78 SW14      29.90R
FORT WAYNE     PTSUNNY   79  70  74 S14       29.93S
HUNTINGTON*    PTSUNNY   79  70  74 SW10G16   29.93R
PERU/GRISSOM   PTSUNNY   80  74  81 SW20G26   29.92S
MARION*        PTSUNNY   79  68  69 S12       29.95S

$$
INZ028>050-302300-
CENTRAL INDIANA

CITY           SKY/WX    TMP DP  RH WIND       PRES   REMARKS
LAFAYETTE      PTSUNNY   81  70  69 SW13G23   29.90S
KOKOMO*        PTSUNNY   79  70  73 SW16      29.93S
MUNCIE*        CLOUDY    78  69  73 S13G20    29.96S
INDIANAPOLIS   CLOUDY    78  69  73 S14       29.96S

$$
MIZ043>046-050>051-056>058-064>065-071>073-077>080-302300-
SOUTHWEST LOWER MICHIGAN

CITY           SKY/WX    TMP DP  RH WIND       PRES   REMARKS
BATTLE CREEK   PTSUNNY   80  68  66 SW20G25   29.87R
BENTON HARBOR  LGT RAIN  76  70  82 SW15G26   29.85R
COLDWATER*     PTSUNNY   82  68  61 SW13G23   29.88S
HILLSDALE*     PTSUNNY   84  67  55 SW14G21   29.90S
HOLLAND        MOSUNNY   81  71  71 SW18G29   29.84R
GRAND RAPIDS   PTSUNNY   81  73  76 SW16G28   29.83R
KALAMAZOO      PTSUNNY   81  70  69 SW18G25   29.86S
STURGIS*       LGT RAIN  79  72  78 SW14G22   29.89R
THREE RIVERS*  FAIR      78  70  76 SW8       29.88R

$$
OHZ001>008-015>018-024>025-302300-
NORTHWEST OHIO

CITY           SKY/WX    TMP DP  RH WIND       PRES   REMARKS
WAUSEON*       FAIR      82  68  61 SW15G23   29.90F
DEFIANCE       MOSUNNY   82  68  62 SW16G24   29.91F
FINDLAY        MOSUNNY   80  67  64 S21       29.94F
TOLEDO EXPRESS MOSUNNY   84  67  56 SW12G25   29.90F
TOLEDO METCALF PTSUNNY   84  66  54 SW20G26   29.91F
LIMA           MOSUNNY   80  69  69 S15       29.97S

$$
&&


USA.gov is the U.S. government's official web portal to all federal, state and local government web resources and services.